Location: Newark
(44.6303°N, 123.0961°W)
Time: 10:35:41
(UTC+00:00)

Envisat - Pass Details

Date: 29 January 2020
Orbit: 764 x 766 km, 98.1° (Epoch: 19 February)

Event Time Altitude Azimuth Distance (km) Brightness Sun altitude
Rises 13:44:34 0° 28° (NNE) 3,241 6.5 -19.7°
Reaches altitude 10° 13:47:34 10° 46° (NE) 2,309 6.0 -19.2°
Maximum altitude 13:51:07 19° 91° (E) 1,767 5.9 -18.5°
Drops below altitude 10° 13:54:39 10° 135° (SE) 2,296 6.2 -17.9°
Sets 13:57:36 0° 154° (SSE) 3,217 6.7 -17.4°
